Location: Unspecified
(0.0000°N, 0.0000°E)
Time: 08:59:02
(UTC+00:00)

COSMOS-2414 - Pass Details

Date: 25 April 2024
Orbit: 908 x 965 km, 83.0° (Epoch: 29 May)

Event Time Altitude Azimuth Distance (km) Brightness Sun altitude
Exits shadow 03:45:42 37° 147° (SSE) 1,395 6.8 -32.1°
Maximum altitude 03:47:45 53° 93° (E) 1,107 6.5 -31.6°
Drops below altitude 10° 03:53:27 10° 17° (NNE) 2,585 8.6 -30.2°
Sets 03:55:57 0° 13° (NNE) 3,521 9.3 -29.6°
